• Join FlightAware (Why Join?)
  • Login
  • US Flag 
10:21AM EST


 

Airport Tracker/Info


-or-


 

Live Flight TrackerFlight Track Log ✈ SKW5500 ✈ 26-Jul-2013 ✈ KASE - KDEN

Flight Track Log - Related Links

Times and Time Zones

All times are in EDT time to prevent confusion due to time zone crossing. See the SKW5500 flight status page for this flight to view local times or setup timezone preferences in your user account.

Time Position Orientation Groundspeed Altitude Reporting Facility
EDT Latitude Longitude Course Direction KTS MPH feet Rate Location/Type
06:00PM 39.2761 -106.9231 101° East 225 259 11,000  Level Denver Center
06:01PM 39.3025 -106.9992 294° West 238 274 13,100 2,032 Climbing Denver Center
06:02PM 39.4089 -106.7994 101° East  Level FlightAware Approximate
06:02PM 39.3603 -106.9594 28° Northeast 275 316 15,200  Level Denver Center
06:03PM 39.3902 -106.6777 101° East  Level FlightAware Approximate
06:04PM 39.3681 -106.5570 104° East  Level FlightAware Approximate
06:04PM 39.3631 -106.8300 88° East 308 354 17,200  Level Denver Center
06:05PM 39.3371 -106.4408 123° Southeast  Level FlightAware Approximate
06:05PM 39.3561 -106.6761 93° East 361 415 19,800  Level Denver Center
06:06PM 39.3261 -106.3192 101° East  Level FlightAware Approximate
06:06PM 39.3517 -106.5550 93° East 347 399 21,200  Level Denver Center
06:07PM 39.3522 -106.4275 90° East 363 418 22,400 871 Climbing Denver Center
06:08PM 39.3631 -106.2686 85° East 399 459 23,000 290 Climbing Denver Center
06:09PM 39.3678 -106.1172 88° East 448 516 23,000  Level Denver Center
06:10PM 39.3761 -105.9139 87° East 470 541 23,000 -97 Level Denver Center
06:11PM 39.3844 -105.7653 86° East 421 484 22,800 -532 Descending Denver Center
06:12PM 39.3892 -105.6244 87° East 395 455 21,900 -871 Descending Denver Center
06:13PM 39.3967 -105.4906 86° East 377 434 21,000 -1,210 Descending Denver Center
06:14PM 39.4569 -105.3678 58° Northeast 367 422 19,400 -1,548 Descending Denver Center
06:15PM 39.5158 -105.2528 56° Northeast 357 411 17,800 -1,694 Descending Denver Center
06:16PM 39.5697 -105.1514 55° Northeast 347 399 15,900 -1,500 Descending Denver Center
06:17PM 39.6186 -105.0550 57° Northeast 324 373 14,700 -968 Descending Denver Center
06:18PM 39.6719 -104.9539 56° Northeast 317 365 13,900 -629 Descending Denver Center
06:19PM 39.7214 -104.8614 55° Northeast 314 361 13,400 -726 Descending Denver Center
06:20PM 39.8092 -104.8414 10° North 302 348 12,400 -1,161 Descending Denver Center
06:21PM 39.8911 -104.8400 North 293 337 11,000 -1,016 Descending Denver Center
06:22PM 39.9614 -104.8397 360° North 254 292 10,300 -960 Descending Denver Center
06:23PM 40.0344 -104.8403 360° North 244 281 9,000 -960 Descending Denver Center
06:24PM 40.0817 -104.7950 36° Northeast 247 284 8,300 -532 Descending Denver Center
06:25PM 40.0319 -104.7331 136° Southeast 247 284 7,900 -774 Descending Denver Center
06:26PM 39.9792 -104.6975 153° Southeast 209 241 6,700 -919 Descending Denver Center
06:27PM 39.9283 -104.6958 179° South 168 193 6,000 -677 Descending Denver Center
06:28PM 39.8889 -104.6961 180° South 146 168 5,300 -677 Descending Denver Center